Location: Sungai Anya
(2.6167°N, 114.0500°E)
Time: 18:00:54
(UTC+00:00)

Cosmos 1153 Rocket - Pass Details

Date: 19 October 2021
Orbit: 952 x 1007 km, 82.9° (Epoch: 07 December)

Event Time Altitude Azimuth Distance (km) Brightness Sun altitude
Rises 11:20:20 0° 178° (S) 3,677 7.6 -18.1°
Reaches altitude 10° 11:22:51 10° 175° (S) 2,736 6.9 -18.7°
Maximum altitude 11:29:05 68° 93° (E) 1,062 4.4 -20.2°
Drops below altitude 10° 11:35:23 10° 11° (N) 2,762 6.7 -21.8°
Sets 11:37:55 0° 9° (N) 3,714 7.4 -22.4°
